APEX ARIES 1, 59129

Orbit data source: Space-Track

APEX ARIES 1, 59129 is a payload satellite owned by Apex (US) in SSO that was launched on Mon, 04 Mar 2024 UTC via an FALCON 9 launch vehicle from the Air Force Western Test Range (AFWTR). Payload-class satellites include a variety of spacecraft equipped with specific instruments for various scientific and technological missions. These include communications satellites like Starlink; space stations such as the ISS; scientific satellites like the Hubble; Earth observation satellites from companies like Planet Labs, Umbra, and HawkEye 360; GPS; miniature CubeSats for education and research; and military/defense satellites.

Loading next visibility...
Identifier
59129, 2024-043AH
Orbit
SSO
Country
Flag of USUS
Related business
Manufacturer
Apex
Mission
Operational Commercial Technology
Bus & Motor
ARIES, Unknown motor
Mass
200 kg wet, 200 kg dry
Launch date (UTC)
2024-03-04 (3 years ago)
Launch vehicle
FALCON 9
Launch site
Air Force Western Test Range (AFWTR)
Object type
Payload
Rocket body
Debris
Shape & HBR
Box + 2 Pan, 1.8 m
Radar Cross Section
1.983 m², Medium (>0.1 m² and < 1m²)

Expand to show TLE details & history
Last TLE update: 13 hours ago

TLE from 13 hours ago
0 APEX ARIES 1
1 59129U 24043AH  26253.38676498  .00022928  00000-0  28858-3 0  9995
2 59129  97.5570  48.6960 0003934 240.5678 119.5186 15.59655241141184
Epoch: 2026-09-10T09:16Z
TLE epoch observation values (Epoch: 2026-09-10T09:16:56.494Z)
Latitude
0.00001°
Longitude
-79.9646°
Altitude
393.106 km
Speed
7.674 km/s
True Right ascension
03h 14m 47s
True Declination
0° 00' 00"
Sunlit
Object was in full shadow at epoch
Visualization orbit readout
Latitude
Unknown
Longitude
Unknown
Altitude
Unknown
Speed
Unknown
Apparent Right ascension
Unknown
Apparent Declination
Unknown
Sunlit
N/A
Visualization observer readout
Local Sidereal Time
15:06:01
Azimuth
Unknown
Elevation
Unknown
Doppler factor
Unknown
Orbital elements
Apogee altitude
388.235 km
Perigee altitude
382.913 km
Semi-major axis
6,763.711 km
Eccentricity
0.00039
Inclination
97.557°
RAAN
48.696°
Arg. of periapsis
240.5678°
True anomaly
119.55782°
Mean anomaly
119.5186°
Eccentric anomaly
119.53821°
Mean motion
3.90181 °/min
Orbital period
92.26 mins
BSTAR
0.00028858
Loading maneuver chart data...
Computing Atmospheric mass density...
Loading historical data...
Loading historical data...
Loading historical data...
Loading historical data...
Loading historical data...
Loading historical data...
Loading historical data...

Documentation

Showing up to 5 results
|